Buffalo, NY

10:25 AM EDT on October 15, 2019 (GMT -0400)
Buffalo Niagara International

Weather History for KBUF - August, 2019

Change the Weather History Date:

Sunday, August 25, 2019

  Actual Average Record
Temperature  
Mean Temperature 65 °F 69 °F  
Max Temperature 77 °F 77 °F 91 °F (2012)
Min Temperature 53 °F 60 °F 42 °F (1963)
Degree Days  
Heating Degree Days 0 1  
Month to date heating degree days 2 10  
Since 1 June heating degree days 64 83  
Since 1 July heating degree days 2 19  
Cooling Degree Days 0 4  
Month to date cooling degree days 156 137  
Year to date cooling degree days 524 463  
Since 1 June cooling degree days 516 437  
Growing Degree Days 15 (Base 50)    
Moisture  
Dew Point 53 °F    
Average Humidity 66    
Maximum Humidity 89    
Minimum Humidity 43    
Precipitation  
Precipitation 0.00 in 0.10 in 1.54 in (2016)
Month to date precipitation 3.38 2.64  
Year to date precipitation 28.13 24.54  
Snow  
Snow 0.00 in 0.00 in 0.00 in ()
Month to date snowfall 0.0 0.0  
Since 1 June snowfall 0.0 0.0  
Since 1 July snowfall 0.0 0.0  
Snow Depth 0.00 in    
Sea Level Pressure  
Sea Level Pressure 30.26 in    
Wind  
Wind Speed 8 mph (East)    
Max Wind Speed 16 mph    
Max Gust Speed 20 mph    
Visibility 10 miles    
Events      
T = Trace of Precipitation, MM = Missing Value Source: NWS Daily Summary

Daily Weather History Graph

Daily Weather History Graph

Search for Another Location

Airport or City:

Astronomy

Aug. 25, 2019 Rise Set
Actual Time 6:31 AM EDT 8:01 PM EDT
Civil Twilight 6:01 AM EDT 8:31 PM EDT
Nautical Twilight 5:25 AM EDT 9:07 PM EDT
Astronomical Twilight 4:47 AM EDT 9:45 PM EDT
Moon 1:00 AM EDT (8/25) 4:25 PM EDT (8/25)
Length of Visible Light 14h 29m
Length of Day
13h 30m
Waning Crescent, 29% of the Moon is Illuminated
Aug 25
Waning Crescent
Aug 30
New
Sep 5
First Quarter
Sep 14
Full
Sep 21
Last Quarter

Hourly Weather History & Observations

Time (EDT) Temp. Dew Point Humidity Pressure Visibility Wind Dir Wind Speed Gust Speed Precip Events Conditions
12:54 AM 57.9 °F 52.0 °F 81% 30.30 in 10.0 mi ENE 5.8 mph - N/A   Partly Cloudy
1:54 AM 57.0 °F 52.0 °F 83% 30.29 in 10.0 mi ENE 6.9 mph - N/A   Partly Cloudy
2:54 AM 57.0 °F 52.0 °F 83% 30.28 in 10.0 mi East 4.6 mph - N/A   Partly Cloudy
3:54 AM 55.0 °F 51.1 °F 86% 30.27 in 10.0 mi East 4.6 mph - N/A   Clear
4:54 AM 54.0 °F 50.0 °F 86% 30.28 in 10.0 mi ESE 5.8 mph - N/A   Clear
5:54 AM 54.0 °F 50.0 °F 86% 30.30 in 10.0 mi East 3.5 mph - N/A   Partly Cloudy
6:54 AM 54.0 °F 50.0 °F 86% 30.31 in 10.0 mi ESE 5.8 mph - N/A   Partly Cloudy
7:54 AM 55.9 °F 50.0 °F 80% 30.32 in 10.0 mi ESE 5.8 mph - N/A   Partly Cloudy
8:54 AM 62.1 °F 52.0 °F 70% 30.31 in 10.0 mi ESE 5.8 mph - N/A   Partly Cloudy
9:54 AM 66.9 °F 54.0 °F 63% 30.31 in 10.0 mi SE 8.1 mph - N/A   Partly Cloudy
10:54 AM 71.1 °F 54.0 °F 55% 30.29 in 10.0 mi Variable 5.8 mph - N/A   Partly Cloudy
11:54 AM 73.0 °F 52.0 °F 48% 30.28 in 10.0 mi ESE 9.2 mph - N/A   Scattered Clouds
12:54 PM 73.0 °F 53.1 °F 49% 30.27 in 10.0 mi ENE 9.2 mph - N/A   Mostly Cloudy
1:54 PM 75.0 °F 53.1 °F 46% 30.25 in 10.0 mi ENE 12.7 mph - N/A   Mostly Cloudy
2:54 PM 75.9 °F 52.0 °F 43% 30.24 in 10.0 mi East 9.2 mph - N/A   Mostly Cloudy
3:54 PM 73.9 °F 54.0 °F 50% 30.23 in 10.0 mi East 10.4 mph - N/A   Mostly Cloudy
4:54 PM 73.9 °F 54.0 °F 50% 30.22 in 10.0 mi East 9.2 mph - N/A   Mostly Cloudy
5:54 PM 75.0 °F 54.0 °F 48% 30.21 in 10.0 mi ESE 11.5 mph - N/A   Mostly Cloudy
6:54 PM 73.0 °F 54.0 °F 51% 30.21 in 10.0 mi ESE 11.5 mph - N/A   Scattered Clouds
7:54 PM 71.1 °F 54.0 °F 55% 30.21 in 10.0 mi East 9.2 mph - N/A   Scattered Clouds
8:54 PM 68.0 °F 55.0 °F 63% 30.21 in 10.0 mi East 6.9 mph - N/A   Partly Cloudy
9:54 PM 64.9 °F 55.0 °F 70% 30.21 in 10.0 mi East 6.9 mph - N/A   Clear
10:54 PM 63.0 °F 55.0 °F 75% 30.21 in 10.0 mi East 9.2 mph - N/A   Clear
11:54 PM 63.0 °F 55.0 °F 75% 30.21 in 10.0 mi ESE 6.9 mph - N/A   Clear